Printer-friendly version
Follow the MPC on Twitter Follow the MPC on Facebook The MPC blog
Minor Planet Center

MPEC 2001-W07 : S/2000 J 3

The following Minor Planet Electronic Circular may be linked-to from your own Web pages, but must not otherwise be redistributed electronically.

A form allowing access to any MPEC is at the bottom of this page.


Read MPEC 2001-W06 Read MPEC 2001-W08


M.P.E.C. 2001-W07                                Issued 2001 Nov. 16, 18:59 UT

     The Minor Planet Electronic Circulars contain information on unusual
         minor planets and routine data on comets.  They are published
   on behalf of Commission 20 of the International Astronomical Union by the
          Minor Planet Center, Smithsonian Astrophysical Observatory,
                          Cambridge, MA 02138, U.S.A.

             Prepared using the Tamkin Foundation Computer Network

                              MPC@CFA.HARVARD.EDU
          URL http://cfa-www.harvard.edu/iau/mpc.html  ISSN 1523-6714

                                  S/2000 J 3

                           Revision to MPEC 2001-A28

Observations:
    SK00J030  C2001 11 15.56780 06 58 50.35 +21 32 28.5          22.2 R      568
    SK00J030  C2001 11 15.58970 06 58 50.11 +21 32 29.1                      568
    SK00J030  C2001 11 15.62269 06 58 49.74 +21 32 29.7          22.4 R      568
    SK00J030  C2001 11 16.58646 06 58 39.46 +21 32 52.3                      568
    SK00J030  C2001 11 16.61281 06 58 39.14 +21 32 53.0                      568

Observer details:
568 Mauna Kea.  Observer S. S. Sheppard.  2.2-m University of Hawaii
    reflector + CCD.

Orbital elements:
S/2000 J 3
Epoch 2001 Oct. 18.0 TT = JDT 2452200.5                 MPC
M 214.73472              (2000.0)            P               Q
n   0.60373406     Peri.   80.01380     -0.85183034     -0.17334567
a   0.1365238      Node   271.31808     -0.37082093     +0.86605603
e   0.3886200      Incl.  150.36752     +0.36996880     +0.46893307
P   1.63           H   14.5           P/d   596.29
Residuals in seconds of arc
001123 568  0.2-  0.2+    001201 568  0.3+  0.0     001217 568  0.4+  0.5+
001123 568  0.0   0.2+    001201 568  0.1+  0.2+    001217 568  0.3+  0.5+
001123 568  0.1-  0.1+    001203 568  0.1+  0.0     001227 568  0.1-  0.1+
001125 568  0.2-  0.1+    001203 568  0.3+  0.2-    001227 568  0.0   0.0
001125 568  0.1-  0.1+    001205 568  0.2-  0.4-    001231 568  0.5-  0.1+
001125 568  0.2-  0.2+    001205 568  0.2-  0.5-    001231 568  0.4-  0.1-
001125 568  0.0   0.0     001205 568  0.2-  0.4-    011115 568  0.0   0.0
001127 568  0.1-  0.3+    001205 568  0.1+  0.6-    011115 568  0.1+  0.1+
001127 568  0.1-  0.0     001205 568  0.4-  0.6-    011115 568  0.0   0.0
001127 568  0.1-  0.1+    001216 568  0.3+  0.2+    011116 568  0.0   0.1-
001129 568  0.4+  0.0     001216 568  0.1+  0.0     011116 568  0.1-  0.0
001129 568  0.1+  0.2-    001216 568  0.4+  0.2+

Ephemeris:
    S/2000 J 3                                                   q = 0.0835
Date    TT    R. A. (2000) Decl.     Delta     r_J   dR.A. ("/m)  dDecl.m1"/')
2001 11 07    06 59.80   +21 30.2    4.523    0.180  6705-/8.01-  3258-/ 54.3-
2001 11 17    06 58.57   +21 33.0    4.389    0.178  6607-/7.89-  3285-/ 54.8-
2001 11 27    06 56.01   +21 38.3    4.274    0.175  6461-/7.72-  3293-/ 54.9-
2001 12 07    06 52.29   +21 45.8    4.184    0.172  6261-/7.49-  3271-/ 54.5-
2001 12 17    06 47.63   +21 55.0    4.121    0.168  6001-/7.19-  3210-/ 53.5-
2001 12 27    06 42.39   +22 05.2    4.089    0.165  5678-/6.81-  3103-/ 51.7-
2002 01 06    06 37.00   +22 15.7    4.088    0.160  5290-/6.35-  2945-/ 49.1-
2002 01 16    06 31.90   +22 26.0    4.119    0.156  4838-/5.82-  2735-/ 45.6-
2002 01 26    06 27.51   +22 35.9    4.181    0.151  4327-/5.21-  2478-/ 41.3-
2002 02 05    06 24.17   +22 45.0    4.269    0.146  3764-/4.53-  2182-/ 36.4-
2002 02 15    06 22.12   +22 53.4    4.382    0.141  3158-/3.81-  1857-/ 30.9-
2002 02 25    06 21.51   +23 01.1    4.513    0.136  2519-/3.04-  1514-/ 25.2-
2002 03 07    06 22.37   +23 07.9    4.660    0.130  1856-/2.24-  1165-/ 19.4-
2002 03 17    06 24.66   +23 13.7    4.817    0.124  1182-/1.43-   820-/ 13.7-
2002 03 27    06 28.29   +23 18.2    4.980    0.118   507-/0.61-   489-/  8.1-
2002 04 06    06 33.12   +23 21.2    5.146    0.112   154+/0.19+   179-/  3.0-
2002 04 16    06 39.01   +23 22.4    5.311    0.106   785+/0.95+   103+/  1.7+
2002 04 26    06 45.80   +23 21.3    5.473    0.100  1364+/1.65+   352+/  5.9+
2002 05 06    06 53.31   +23 17.7    5.628    0.095  1869+/2.26+   563+/  9.4+
2002 05 16    07 01.38   +23 11.3    5.775    0.090  2271+/2.75+   733+/ 12.2+

Brian G. Marsden             (C) Copyright 2001 MPC           M.P.E.C. 2001-W07

Read MPEC 2001-W06 Read MPEC 2001-W08


MPEC number:

Enter an MPEC number in one of the following forms:

  • 1997-B01 (the full form)
  • J97B01 (the packed version of the full form)
  • B01 (the abbreviated form)

Valid HTML 4.01!